Date String (YYYY-MM-DD hh:mm:ss) UTC,Instrument flags,absolute air pressure of the measurement (hPa),sample flow rate (lpm),inlet stack bypass flow (lpm),air temperature of the measurement (°C),ambient temperature measured by the external sensor (°C),aerosol sample conditioner tube jacket temperature (°C),OPC LED temperature (°C),internal box temperature (°C),relative humidity of the measurement (%),span deviation,mass concentration of particles derived from Lorenz-Mie calculation of OPC scattering (μg/m³),mass concentration of particles derived from Lorenz-Mie calculation of OPC scattering (μg/m³),mass concentration of particles derived from Lorenz-Mie calculation of OPC scattering (μg/m³)
DateTimeUTC,F1_M11,P_M11,Q1_M11,Q2_M11,T1_M11,T2_M11,T3_M11,T4_M11,T5_M11,U1_M11,ZSPAN_M11,X2_M11,X0_M11,X1_M11
2023-10-05 04:00:00,SystemResetWarning,0833.2,5.00,000.00,028.9,027.6,000.0,037.3,030.6,11.9,0000.0,0001.17,0001.74,0001.11
2023-10-05 04:01:00,SystemResetWarning,0833.3,5.00,000.00,028.9,027.6,000.0,037.3,030.6,11.9,0000.0,0001.19,0001.80,0001.11
2023-10-05 04:02:00,SystemResetWarning,0833.3,5.00,000.00,028.9,027.6,000.0,037.3,030.6,11.9,0000.0,0001.20,0001.83,0001.11
2023-10-05 04:03:00,SystemResetWarning,0833.4,5.00,000.00,029.0,027.6,000.0,037.3,030.6,11.9,0000.0,0001.20,0002.91,0001.12
2023-10-05 04:04:00,SystemResetWarning,0833.4,5.00,000.00,029.0,027.7,000.0,037.3,030.6,11.9,0000.0,0001.21,0003.57,0001.13
2023-10-05 04:05:00,SystemResetWarning,0833.3,5.00,000.00,029.0,027.7,000.0,037.3,030.6,11.9,0000.0,0001.21,0003.55,0001.14
2023-10-05 04:06:00,SystemResetWarning,0833.4,5.00,000.00,029.0,027.7,000.0,037.4,030.6,11.7,0000.0,0001.19,0003.41,0001.13
2023-10-05 04:07:00,SystemResetWarning,0833.3,5.00,000.00,029.0,027.7,000.0,037.4,030.6,11.9,0000.0,0001.20,0003.43,0001.13
2023-10-05 04:08:00,SystemResetWarning,0833.4,5.00,000.00,029.0,027.6,000.0,037.4,030.6,11.8,0000.0,0001.22,0003.47,0001.15
2023-10-05 04:09:00,SystemResetWarning,0833.4,5.00,000.00,029.0,027.6,000.0,037.4,030.6,11.5,0000.0,0001.24,0003.52,0001.15
2023-10-05 04:10:00,SystemResetWarning,0833.4,5.00,000.00,029.0,027.7,000.0,037.4,030.6,11.5,0000.0,0001.24,0003.51,0001.14
2023-10-05 04:11:00,SystemResetWarning,0833.4,5.00,000.00,029.0,027.7,000.0,037.4,030.7,11.4,0000.0,0001.22,0003.50,0001.12
2023-10-05 04:12:00,SystemResetWarning,0833.4,5.00,000.00,029.0,027.7,000.0,037.4,030.7,11.5,0000.0,0001.20,0003.44,0001.11
2023-10-05 04:13:00,SystemResetWarning,0833.4,5.00,000.00,029.1,027.7,000.0,037.4,030.7,11.4,0000.0,0001.21,0003.67,0001.12
2023-10-05 04:14:00,SystemResetWarning,0833.4,5.00,000.00,029.1,027.8,000.0,037.4,030.7,11.4,0000.0,0001.22,0003.56,0001.12
2023-10-05 04:15:00,SystemResetWarning,0833.4,5.00,000.00,029.1,027.8,000.0,037.5,030.7,11.4,0000.0,0001.22,0002.39,0001.12
2023-10-05 04:16:00,SystemResetWarning,0833.4,5.00,000.00,029.1,027.8,000.0,037.5,030.7,11.5,0000.0,0001.25,0002.49,0001.12
2023-10-05 04:17:00,SystemResetWarning,0833.4,5.00,000.00,029.1,027.5,000.0,037.5,030.8,11.5,0000.0,0001.27,0002.56,0001.13
2023-10-05 04:18:00,SystemResetWarning,0833.4,4.98,000.00,029.1,025.4,000.0,037.4,030.6,11.6,0000.0,0001.27,0002.56,0001.14
2023-10-05 04:19:00,SystemResetWarning,0833.4,5.01,000.00,029.0,024.4,000.0,037.3,030.4,11.8,0000.0,0001.26,0002.54,0001.13
2023-10-05 04:20:00,SystemResetWarning,0833.4,5.01,000.00,028.8,024.4,000.0,037.3,030.1,11.9,0000.0,0001.24,0002.49,0001.13
2023-10-05 04:21:00,SystemResetWarning,0833.3,5.00,000.00,028.7,024.7,000.0,037.3,030.0,12.0,0000.0,0001.26,0002.50,0001.13
2023-10-05 04:22:00,SystemResetWarning,0833.4,5.00,000.00,028.6,025.1,000.0,037.3,030.0,12.1,0000.0,0001.28,0002.55,0001.15
2023-10-05 04:23:00,SystemResetWarning,0833.3,5.00,000.00,028.6,025.5,000.0,037.3,030.0,12.2,0000.0,0001.31,0002.62,0001.16
2023-10-05 04:24:00,SystemResetWarning,0833.3,5.00,000.00,028.5,025.8,000.0,037.2,030.1,12.3,0000.0,0001.31,0002.43,0001.16
2023-10-05 04:25:00,SystemResetWarning,0833.3,5.00,000.00,028.5,026.1,000.0,037.2,030.1,12.3,0000.0,0001.30,0002.02,0001.16
2023-10-05 04:26:00,SystemResetWarning,0833.3,5.00,000.00,028.5,026.3,000.0,037.2,030.1,12.3,0000.0,0001.30,0001.96,0001.17
2023-10-05 04:27:00,SystemResetWarning,0833.3,5.01,000.00,028.5,026.5,000.0,037.2,030.1,12.4,0000.0,0001.29,0001.87,0001.18
2023-10-05 04:28:00,SystemResetWarning,0833.3,5.00,000.00,028.5,026.7,000.0,037.1,030.2,12.4,0000.0,0001.27,0001.79,0001.17
2023-10-05 04:29:00,SystemResetWarning,0833.3,4.99,000.00,028.6,026.8,000.0,037.1,030.2,12.4,0000.0,0001.30,0001.84,0001.20
2023-10-05 04:30:00,SystemResetWarning,0833.3,4.99,000.00,028.6,026.9,000.0,037.1,030.2,12.4,0000.0,0001.30,0001.87,0001.20
2023-10-05 04:31:00,SystemResetWarning,0833.3,5.00,000.00,028.6,027.0,000.0,037.1,030.2,12.4,0000.0,0001.31,0001.89,0001.20
2023-10-05 04:32:00,SystemResetWarning,0833.3,5.00,000.00,028.6,027.1,000.0,037.1,030.2,12.4,0000.0,0001.30,0001.87,0001.20
2023-10-05 04:33:00,SystemResetWarning,0833.3,5.00,000.00,028.6,027.1,000.0,037.1,030.3,12.4,0000.0,0001.31,0001.87,0001.21
2023-10-05 04:34:00,SystemResetWarning,0833.4,5.00,000.00,028.6,027.2,000.0,037.1,030.3,12.4,0000.0,0001.30,0001.84,0001.21
2023-10-05 04:35:00,SystemResetWarning,0833.4,5.00,000.00,028.7,027.2,000.0,037.1,030.3,12.4,0000.0,0001.29,0001.78,0001.22
2023-10-05 04:36:00,SystemResetWarning,0833.4,5.00,000.00,028.7,027.3,000.0,037.1,030.3,12.3,0000.0,0001.29,0001.79,0001.23
2023-10-05 04:37:00,SystemResetWarning,0833.4,5.00,000.00,028.7,027.3,000.0,037.1,030.3,12.3,0000.0,0001.29,0001.80,0001.22
2023-10-05 04:38:00,SystemResetWarning,0833.4,5.02,000.00,028.7,027.3,000.0,037.1,030.3,12.3,0000.0,0001.32,0001.85,0001.23
2023-10-05 04:39:00,SystemResetWarning,0833.4,5.01,000.00,028.7,027.3,000.0,037.1,030.4,12.3,0000.0,0001.36,0001.96,0001.24
2023-10-05 04:40:00,SystemResetWarning,0833.4,5.00,000.00,028.7,027.4,000.0,037.1,030.4,12.4,0000.0,0001.35,0001.95,0001.22
2023-10-05 04:41:00,SystemResetWarning,0833.4,5.00,000.00,028.7,027.4,000.0,037.1,030.4,12.4,0000.0,0001.34,0001.95,0001.21
2023-10-05 04:42:00,SystemResetWarning,0833.4,5.00,000.00,028.7,027.4,000.0,037.1,030.4,12.5,0000.0,0001.33,0001.92,0001.21
2023-10-05 04:43:00,SystemResetWarning,0833.4,4.99,000.00,028.8,027.4,000.0,037.2,030.4,12.5,0000.0,0001.35,0001.95,0001.22
2023-10-05 04:44:00,SystemResetWarning,0833.4,5.00,000.00,028.8,027.4,000.0,037.2,030.4,12.6,0000.0,0001.33,0001.91,0001.21
2023-10-05 04:45:00,SystemResetWarning,0833.4,5.00,000.00,028.8,027.4,000.0,037.2,030.4,12.6,0000.0,0001.34,0001.93,0001.21
2023-10-05 04:46:00,SystemResetWarning,0833.4,5.00,000.00,028.8,027.4,000.0,037.2,030.4,12.6,0000.0,0001.39,0002.10,0001.21
2023-10-05 04:47:00,SystemResetWarning,0833.4,5.00,000.00,028.8,027.4,000.0,037.2,030.4,12.6,0000.0,0001.41,0002.74,0001.21
2023-10-05 04:48:00,SystemResetWarning,0833.5,5.00,000.00,028.8,027.4,000.0,037.2,030.5,12.6,0000.0,0001.41,0002.94,0001.22
2023-10-05 04:49:00,SystemResetWarning,0833.4,5.01,000.00,028.8,027.4,000.0,037.2,030.4,12.5,0000.0,0001.40,0002.91,0001.22
2023-10-05 04:50:00,SystemResetWarning,0833.4,5.01,000.00,028.8,027.4,000.0,037.2,030.4,12.4,0000.0,0001.36,0003.22,0001.21
2023-10-05 04:51:00,SystemResetWarning,0833.5,5.00,000.00,028.8,027.4,000.0,037.2,030.4,12.5,0000.0,0001.38,0003.26,0001.22
2023-10-05 04:52:00,SystemResetWarning,0833.5,5.00,000.00,028.8,027.4,000.0,037.2,030.4,12.5,0000.0,0001.39,0003.24,0001.24
2023-10-05 04:53:00,SystemResetWarning,0833.6,5.00,000.00,028.8,027.4,000.0,037.2,030.4,12.5,0000.0,0001.39,0003.25,0001.25
2023-10-05 04:54:00,SystemResetWarning,0833.5,5.00,000.00,028.8,027.4,000.0,037.2,030.4,12.5,0000.0,0001.36,0003.20,0001.23
2023-10-05 04:55:00,SystemResetWarning,0833.6,5.00,000.00,028.8,027.3,000.0,037.2,030.4,12.4,0000.0,0001.34,0003.17,0001.21
2023-10-05 04:56:00,SystemResetWarning,0833.6,5.00,000.00,028.8,027.3,000.0,037.2,030.4,12.4,0000.0,0001.31,0003.12,0001.19
2023-10-05 04:57:00,SystemResetWarning,0833.7,4.99,000.00,028.8,027.3,000.0,037.2,030.4,12.5,0000.0,0001.22,0002.89,0001.15
2023-10-05 04:58:00,SystemResetWarning,0833.7,5.00,000.00,028.8,027.3,000.0,037.2,030.4,12.4,0000.0,0001.19,0002.26,0001.13
2023-10-05 04:59:00,SystemResetWarning,0833.7,5.00,000.00,028.8,027.3,000.0,037.2,030.4,12.3,0000.0,0001.18,0002.01,0001.12
